User: anonymous   Login
Location: Allen Fire Department Station 4
(33.1073°N, 96.6988°W)
Time: 17:43:10
(UTC+00:00)
Language:

SJ 16-02 - Orbit

View from above orbital plane
View from above orbital plane
View from above satellite
View from above satellite

Ground track
Ground track

The orbit data is extracted from the following two-line orbital elements,

1 41634U 16043A   22145.40673551  .00001229  00000-0  14313-3 0  9996
2 41634  75.0033 190.6097 0006904  26.8323 333.3185 14.86149034320239
Epoch (UTC): 25 May 2022 09:45:41
Eccentricity: 0.0006904
inclination: 75.0033°
perigee height: 605 km
apogee height: 615 km
right ascension of ascending node: 190.6097°
argument of perigee: 26.8323°
revolutions per day: 14.86149034
mean anomaly at epoch: 333.3185°
orbit number at epoch: 32023

The dashed part of the orbit path shows where the satellite is in the earth's shadow,  

DLR